User: anonymous   Login
Location: Étavigny
(49.1201°N, 2.9800°E)
Time: 03:20:00
(UTC+00:00)
Language:

BREEZE-M DEB (TANK) - Orbit

View from above orbital plane
View from above orbital plane
View from above satellite
View from above satellite

Ground track
Ground track

The orbit data is extracted from the following two-line orbital elements,

1 31863U 07032B   23154.37735217  .00000671  00000-0  52365-3 0  9991
2 31863  45.9127 211.2635 4957510 171.5223 201.7916  5.53021353319784
Epoch (UTC): 03 June 2023 09:03:23
Eccentricity: 0.4957510
inclination: 45.9127°
perigee height: 433 km
apogee height: 13825 km
right ascension of ascending node: 211.2635°
argument of perigee: 171.5223°
revolutions per day: 5.53021353
mean anomaly at epoch: 201.7916°
orbit number at epoch: 31978

The dashed part of the orbit path shows where the satellite is in the earth's shadow,  

DLR